Fairfield, IA

4:15 PM CST on February 19, 2017 (GMT -0600)
Fairfield Municipal

Weather History for KFFL - December, 2012

Change the Weather History Date:

Wednesday, December 19, 2012

  Actual Average Record
Temperature  
Mean Temperature 34 °F -  
Max Temperature 37 °F 34 °F 57 °F (1988)
Min Temperature 32 °F 18 °F -23 °F (1985)
Degree Days  
Heating Degree Days 30    
Moisture  
Dew Point 30 °F    
Average Humidity 84    
Maximum Humidity 93    
Minimum Humidity 81    
Precipitation  
Precipitation 0.63 in - - ()
Sea Level Pressure  
Sea Level Pressure 29.88 in    
Wind  
Wind Speed 7 mph (East)    
Max Wind Speed 25 mph    
Max Gust Speed 31 mph    
Visibility 4 miles    
Events Rain , Snow    
Averages and records for this station are not official NWS values.
T = Trace of Precipitation, MM = Missing Value Source: NWS Daily Summary

Daily Weather History Graph

Daily Weather History Graph

Search for Another Location

Airport or City:

Trip Planner

Search our weather history database for the weather conditions in past years. The results will help you decide how hot, cold, wet, or windy it might be!

Date:

Astronomy

Dec. 19, 2012 Rise Set
Actual Time 7:28 AM CST 4:41 PM CST
Civil Twilight 6:57 AM CST 5:13 PM CST
Nautical Twilight 6:22 AM CST 5:47 PM CST
Astronomical Twilight 5:49 AM CST 6:21 PM CST
Moon 11:34 AM CST No Moon Set
Length of Visible Light 10h 15m
Length of Day
9h 13m
Waxing Crescent, 45% of the Moon is Illuminated
Dec 19
Waxing Crescent
Dec 19
First Quarter
Dec 28
Full
Jan 4
Last Quarter
Jan 11
New

Hourly Weather History & Observations

Time (CST) Temp. Windchill Dew Point Humidity Pressure Visibility Wind Dir Wind Speed Gust Speed Precip Events Conditions
12:15 AM 33.8 °F 30.8 °F 28.4 °F 81% 29.91 in 7.0 mi NNW 3.5 mph - N/A   Overcast
12:35 AM 33.8 °F - 28.4 °F 81% 29.92 in 5.0 mi Calm Calm - N/A   Haze
12:55 AM 33.8 °F - 28.4 °F 81% 29.92 in 5.0 mi Calm Calm - N/A   Haze
1:15 AM 32.0 °F 27.5 °F 28.4 °F 87% 29.91 in 5.0 mi North 4.6 mph - N/A   Overcast
1:35 AM 32.0 °F - 28.4 °F 87% 29.93 in 7.0 mi Calm Calm - N/A   Overcast
1:55 AM 32.0 °F - 28.4 °F 87% 29.93 in 5.0 mi Calm Calm - N/A   Overcast
2:15 AM 32.0 °F - 28.4 °F 87% 29.95 in 5.0 mi Calm Calm - N/A   Overcast
2:35 AM 32.0 °F - 28.4 °F 87% 29.95 in 5.0 mi Calm Calm - N/A   Overcast
2:55 AM 33.8 °F - 28.4 °F 81% 29.95 in 5.0 mi Calm Calm - N/A   Haze
3:15 AM 33.8 °F - 28.4 °F 81% 29.95 in 5.0 mi Calm Calm - N/A   Haze
3:35 AM 32.0 °F - 28.4 °F 87% 29.96 in 5.0 mi Calm Calm - N/A   Overcast
3:55 AM 32.0 °F - 28.4 °F 87% 29.96 in 5.0 mi Calm Calm - N/A   Overcast
4:15 AM 32.0 °F - 28.4 °F 87% 29.96 in 5.0 mi Calm Calm - N/A   Overcast
4:35 AM 32.0 °F - 28.4 °F 87% 29.96 in 5.0 mi Calm Calm - N/A   Overcast
4:55 AM 32.0 °F - 28.4 °F 87% 29.97 in 5.0 mi Calm Calm - N/A   Overcast
5:15 AM 32.0 °F 28.7 °F 28.4 °F 87% 29.96 in 5.0 mi East 3.5 mph - N/A   Overcast
5:35 AM 33.8 °F - 28.4 °F 81% 29.97 in 5.0 mi Calm Calm - N/A   Haze
5:55 AM 32.0 °F - 28.4 °F 87% 29.98 in 5.0 mi Calm Calm - N/A   Overcast
6:15 AM 32.0 °F 27.5 °F 28.4 °F 87% 29.98 in 5.0 mi ESE 4.6 mph - N/A   Overcast
6:35 AM 32.0 °F 26.4 °F 28.4 °F 87% 29.97 in 5.0 mi East 5.8 mph - N/A   Overcast
6:55 AM 32.0 °F 26.4 °F 28.4 °F 87% 29.97 in 5.0 mi East 5.8 mph - N/A   Overcast
7:15 AM 32.0 °F 25.6 °F 28.4 °F 87% 29.97 in 5.0 mi East 6.9 mph - N/A   Overcast
7:35 AM 32.0 °F 25.6 °F 28.4 °F 87% 29.98 in 5.0 mi ESE 6.9 mph - N/A   Overcast
7:55 AM 33.8 °F 27.0 °F 28.4 °F 81% 29.98 in 5.0 mi ESE 8.1 mph - N/A   Overcast
8:15 AM 33.8 °F 27.0 °F 28.4 °F 81% 29.98 in 4.0 mi East 8.1 mph - N/A   Overcast
8:35 AM 33.8 °F 27.7 °F 28.4 °F 81% 29.98 in 4.0 mi East 6.9 mph - N/A   Overcast
8:55 AM 33.8 °F 25.8 °F 28.4 °F 81% 29.99 in 4.0 mi ESE 10.4 mph - N/A   Overcast
9:15 AM 33.8 °F 25.8 °F 28.4 °F 81% 29.98 in 4.0 mi ESE 10.4 mph - N/A   Overcast
9:35 AM 33.8 °F 26.4 °F 28.4 °F 81% 30.00 in 4.0 mi ESE 9.2 mph - N/A   Overcast
9:55 AM 33.8 °F 25.8 °F 28.4 °F 81% 29.99 in 4.0 mi SE 10.4 mph - N/A   Haze
10:15 AM 33.8 °F 25.3 °F 30.2 °F 87% 29.99 in 4.0 mi East 11.5 mph - N/A   Overcast
10:35 AM 35.6 °F 28.0 °F 30.2 °F 81% 29.98 in 4.0 mi East 10.4 mph - N/A   Haze
10:55 AM 35.6 °F 28.6 °F 30.2 °F 81% 29.98 in 5.0 mi East 9.2 mph - N/A   Haze
11:15 AM 35.6 °F 28.0 °F 30.2 °F 81% 29.97 in 5.0 mi East 10.4 mph - N/A   Haze
11:35 AM 35.6 °F 28.6 °F 30.2 °F 81% 29.97 in 5.0 mi East 9.2 mph - N/A   Haze
11:55 AM 35.6 °F 28.6 °F 30.2 °F 81% 29.96 in 5.0 mi East 9.2 mph - N/A   Haze
12:15 PM 35.6 °F 29.2 °F 30.2 °F 81% 29.97 in 5.0 mi East 8.1 mph - N/A   Haze
12:35 PM 35.6 °F 28.6 °F 30.2 °F 81% 29.96 in 5.0 mi East 9.2 mph - N/A   Haze
12:55 PM 35.6 °F 27.5 °F 30.2 °F 81% 29.95 in 5.0 mi ENE 11.5 mph - N/A   Haze
1:15 PM 35.6 °F 27.5 °F 30.2 °F 81% 29.94 in 5.0 mi East 11.5 mph - N/A   Haze
1:35 PM 35.6 °F 27.1 °F 30.2 °F 81% 29.93 in 5.0 mi East 12.7 mph - N/A   Haze
1:55 PM 37.4 °F 29.3 °F 32.0 °F 81% 29.92 in 5.0 mi East 12.7 mph - N/A   Haze
2:15 PM 37.4 °F 29.3 °F 32.0 °F 81% 29.90 in 5.0 mi East 12.7 mph - N/A   Haze
2:35 PM 37.4 °F 28.5 °F 32.0 °F 81% 29.90 in 5.0 mi East 15.0 mph - N/A   Haze
2:55 PM 35.6 °F 27.1 °F 32.0 °F 87% 29.89 in 4.0 mi East 12.7 mph - N/A   Mostly Cloudy
3:15 PM 35.6 °F 26.2 °F 30.2 °F 81% 29.88 in 2.5 mi ENE 15.0 mph - 0.01 in Rain Light Rain
3:35 PM 35.6 °F 25.5 °F 30.2 °F 81% 29.87 in 2.5 mi ENE 17.3 mph - 0.03 in Rain Light Rain
3:55 PM 35.6 °F 24.5 °F 30.2 °F 81% 29.84 in 2.5 mi ENE 20.7 mph 24.2 mph 0.04 in Rain Light Rain
4:15 PM 35.6 °F 26.6 °F 30.2 °F 81% 29.86 in 4.0 mi ENE 13.8 mph 20.7 mph N/A   Light Drizzle
4:35 PM 35.6 °F 27.1 °F 30.2 °F 81% 29.86 in 5.0 mi East 12.7 mph - N/A   Overcast
4:55 PM 35.6 °F 25.9 °F 30.2 °F 81% 29.85 in 5.0 mi ENE 16.1 mph 21.9 mph N/A Rain Light Rain
5:15 PM 35.6 °F 25.2 °F 30.2 °F 81% 29.83 in 4.0 mi ENE 18.4 mph - 0.01 in Rain Light Rain
5:35 PM 35.6 °F 24.2 °F 30.2 °F 81% 29.82 in 4.0 mi ENE 21.9 mph 25.3 mph 0.01 in Rain Light Rain
5:55 PM 35.6 °F 25.2 °F 32.0 °F 87% 29.83 in 4.0 mi ENE 18.4 mph - 0.01 in   Overcast
6:15 PM 35.6 °F 24.5 °F 32.0 °F 87% 29.81 in 4.0 mi ENE 20.7 mph 26.5 mph N/A   Overcast
6:35 PM 35.6 °F 24.5 °F 32.0 °F 87% 29.81 in 4.0 mi East 20.7 mph 26.5 mph N/A   Overcast
6:55 PM 35.6 °F 24.8 °F 32.0 °F 87% 29.79 in 4.0 mi East 19.6 mph 25.3 mph N/A   Overcast
7:15 PM 35.6 °F 26.2 °F 32.0 °F 87% 29.80 in 4.0 mi ENE 15.0 mph - N/A   Overcast
7:35 PM 35.6 °F 25.5 °F 32.0 °F 87% 29.78 in 4.0 mi ENE 17.3 mph 24.2 mph N/A   Overcast
7:55 PM 35.6 °F 26.2 °F 30.2 °F 81% 29.79 in 3.0 mi East 15.0 mph - 0.01 in Rain Light Rain
8:15 PM 35.6 °F 24.5 °F 30.2 °F 81% 29.75 in 2.5 mi ENE 20.7 mph 25.3 mph 0.04 in Rain Light Rain
8:35 PM 35.6 °F 24.0 °F 32.0 °F 87% 29.73 in 3.0 mi East 23.0 mph 29.9 mph 0.05 in Rain Light Rain
8:55 PM 35.6 °F 23.4 °F 32.0 °F 87% 29.70 in 3.0 mi ENE 25.3 mph 31.1 mph 0.05 in Rain Light Rain
9:15 PM 35.6 °F 24.2 °F 32.0 °F 87% 29.67 in 2.5 mi East 21.9 mph 27.6 mph 0.02 in Rain Light Rain
9:35 PM 35.6 °F 23.7 °F 32.0 °F 87% 29.64 in 2.5 mi East 24.2 mph 29.9 mph 0.03 in Rain Light Rain
9:55 PM 35.6 °F 24.0 °F 32.0 °F 87% 29.64 in 4.0 mi East 23.0 mph 29.9 mph 0.04 in Rain Light Rain
10:15 PM 35.6 °F 24.8 °F 32.0 °F 87% 29.67 in 1.5 mi East 19.6 mph 29.9 mph 0.12 in Snow Light Snow
10:35 PM 35.6 °F 24.8 °F 32.0 °F 87% 29.64 in 1.8 mi East 19.6 mph - 0.29 in Snow Light Snow
10:55 PM 33.8 °F 21.9 °F 32.0 °F 93% 29.61 in 2.5 mi East 21.9 mph 28.8 mph 0.36 in Snow Light Snow
11:15 PM 35.6 °F 25.2 °F 32.0 °F 87% 29.60 in 3.0 mi East 18.4 mph 25.3 mph 0.09 in Snow Light Snow
11:35 PM 35.6 °F 25.9 °F 33.8 °F 93% 29.60 in 7.0 mi ENE 16.1 mph - 0.11 in Rain Light Rain
11:55 PM 35.6 °F 24.8 °F 33.8 °F 93% 29.58 in 7.0 mi ENE 19.6 mph 25.3 mph 0.12 in Rain Light Rain